This is the latest recevied weather packets stored in our database for station/object N0ZMJ-4. If no packets are shown the sender has not sent any weather packets the latest 10 day(s).
| Time | Temp. | Humidity | Pressure | Rain* | Wind** | Luminosity | Snow |
|---|---|---|---|---|---|---|---|
| 1777665003 | 10° C | 53% | 1017.9 hPa | 0 mm | - | - | - |
| 1777664703 | 10.56° C | 55% | 1017.8 hPa | 0 mm | - | - | - |
| 1777664403 | 10.56° C | 53% | 1017.9 hPa | 0 mm | - | - | - |
| 1777664103 | 10° C | 52% | 1017.9 hPa | 0 mm | - | - | - |
| 1777663803 | 10.56° C | 54% | 1018 hPa | 0 mm | - | - | - |
| 1777663503 | 10.56° C | 55% | 1018 hPa | 0 mm | - | - | - |
| 1777663203 | 10° C | 56% | 1018 hPa | 0 mm | - | - | - |
| 1777662903 | 10° C | 55% | 1018 hPa | 0 mm | - | - | - |
| 1777662603 | 10° C | 56% | 1018.2 hPa | 0 mm | - | - | - |
| 1777662303 | 10° C | 55% | 1018.2 hPa | 0 mm | - | - | - |
| 1777662003 | 9.44° C | 56% | 1018.1 hPa | 0 mm | - | - | - |
| 1777661704 | 9.44° C | 55% | 1018.1 hPa | 0 mm | - | - | - |
| 1777661403 | 9.44° C | 58% | 1018.2 hPa | 0 mm | - | - | - |
| 1777661103 | 9.44° C | 56% | 1018.2 hPa | 0 mm | - | - | - |
| 1777660803 | 9.44° C | 56% | 1018 hPa | 0 mm | - | - | - |
| 1777660503 | 9.44° C | 56% | 1018.2 hPa | 0 mm | - | - | - |
| 1777660203 | 9.44° C | 59% | 1018.2 hPa | 0 mm | - | - | - |
| 1777659903 | 9.44° C | 56% | 1018.2 hPa | 0 mm | - | - | - |
| 1777659603 | 9.44° C | 58% | 1018.2 hPa | 0 mm | - | - | - |
| 1777659303 | 8.89° C | 60% | 1018.2 hPa | 0 mm | - | - | - |
| 1777659002 | 8.89° C | 60% | 1018.1 hPa | 0 mm | - | - | - |
| 1777658703 | 8.89° C | 60% | 1018.3 hPa | 0 mm | - | - | - |
| 1777658403 | 8.89° C | 61% | 1018.3 hPa | 0 mm | - | - | - |
| 1777658103 | 8.33° C | 60% | 1018.3 hPa | 0 mm | - | - | - |
| 1777657803 | 8.33° C | 60% | 1018.3 hPa | 0 mm | - | - | - |
* Rain latest hour (hover to see other rain measurements)
** Current wind speed in m/s (hover to see current wind gust speed)